Regional Weather Roundup
Issued by NWS

Home | Current Version | Previous Version | Text Only | Print | Product List | Glossary On
Versions: 1 2 3 4 5 6 7 8 9 10 11 12 13 14 15 16 17 18 19 20 21 22 23 24 25 26 27 28 29 30 31 32 33 34 35 36 37 38 39 40 41 42 43 44 45 46 47 48 49 50
000
ASUS44 KBMX 260810
RWRAL

ALABAMA REGIONAL WEATHER ROUNDUP
NATIONAL WEATHER SERVICE BIRMINGHAM AL
300 AM CDT MON JUN 26 2017

NOTE: "FAIR" INDICATES FEW OR NO CLOUDS BELOW 12,000 FEET
WITH NO SIGNIFICANT WEATHER AND/OR OBSTRUCTIONS TO VISIBILITY.

THE REMARK "TC" DENOTES TEMPERATURE IN DEGREES CELSIUS.

ALZ001>011-014-016>018-020-260900-
NORTH ALABAMA

CITY           SKY/WX    TMP DP  RH WIND       PRES   REMARKS
MUSCLE SHOALS  PTCLDY    59  56  89 CALM      30.18F
HUNTSVILLE     PTCLDY    59  58  96 CALM      30.17S
DECATUR        CLEAR     58  56  93 CALM      30.17F
HALEYVILLE     NOT AVBL
GADSDEN        CLEAR     58  58 100 CALM      30.17S
$$

ALZ012-013-022-023-030>036-040>044-260900-
WEST CENTRAL ALABAMA

CITY           SKY/WX    TMP DP  RH WIND       PRES   REMARKS
TUSCALOOSA     CLEAR     62  62 100 CALM      30.16S
$$

ALZ015-024>027-033>036-040>044-260900-
CENTRAL ALABAMA

CITY           SKY/WX    TMP DP  RH WIND       PRES   REMARKS
BIRMINGHAM     CLEAR     63  60  90 CALM      30.18F
MONTGOMERY     CLOUDY    67  59  75 NW6       30.13F
SHELBY CO ARPT PTCLDY    63  62  97 CALM      30.16S
MAXWELL AFB    NOT AVBL
GREENVILLE     FAIR      66  59  78 N5        30.12S
$$

ALZ019-021-028-029-037-038-045>048-260900-
EAST CENTRAL ALABAMA

CITY           SKY/WX    TMP DP  RH WIND       PRES   REMARKS
ANNISTON       CLEAR     61  58  90 CALM      30.16S
ALEXANDER CITY CLEAR     61  59  93 CALM      30.14S
AUBURN         CLOUDY    66  60  81 N7        30.14S
$$

ALZ051>064-260900-
SOUTHWEST ALABAMA

CITY           SKY/WX    TMP DP  RH WIND       PRES   REMARKS
MOBILE         CLEAR     71  65  81 NE6       30.12S
BROOKLEY FIELD PTCLDY    74  69  85 N8        30.12S
EVERGREEN      CLEAR     64  62  93 CALM      30.12F
$$

ALZ049-050-065>069-260900-
SOUTHEAST ALABAMA

CITY           SKY/WX    TMP DP  RH WIND       PRES   REMARKS
DOTHAN         MOCLDY    68  63  84 N5        30.13F
OZARK          PTCLDY    69  61  75 N6        30.10F
TROY           CLEAR     63  63 100 CALM      30.13S
EUFAULA        FAIR      63  61  93 NW5       30.10F
$$



USA.gov is the U.S. government's official web portal to all federal, state and local government web resources and services.